| time (UTC) | temp F | wind direction | speed MPH | gust MPH | rain 1hr in | rain 24hr in | rain mn in | humidity % | barometer mb |
| 20260510191818 | 87 | 0.0 | 0.0 | 0.00 | 0.04 | 0.04 | 56 | 1014.9 | |
| 20260510190816 | 87 | 23 | 1.0 | 2.0 | 0.00 | 0.04 | 0.04 | 56 | 1014.9 |
| 20260510185817 | 88 | 0 | 1.0 | 2.0 | 0.00 | 0.04 | 0.04 | 55 | 1015.1 |
| 20260510184918 | 88 | 23 | 1.0 | 2.0 | 0.00 | 0.04 | 0.04 | 56 | 1015.2 |
| 20260510183818 | 87 | 0 | 1.0 | 2.0 | 0.00 | 0.04 | 0.04 | 58 | 1015.4 |
| 20260510182817 | 87 | 135 | 1.0 | 2.0 | 0.00 | 0.04 | 0.04 | 60 | 1015.4 |
| 20260510181817 | 86 | 180 | 1.0 | 1.0 | 0.00 | 0.04 | 0.04 | 59 | 1015.4 |
| 20260510180817 | 86 | 0.0 | 1.0 | 0.00 | 0.04 | 0.04 | 57 | 1015.5 | |
| 20260510175817 | 86 | 0.0 | 1.0 | 0.00 | 0.05 | 0.04 | 63 | 1015.7 | |
| 20260510174817 | 85 | 0.0 | 1.0 | 0.00 | 0.05 | 0.04 | 63 | 1015.9 | |
| 20260510173946 | 84 | 0.0 | 0.0 | 0.00 | 0.05 | 0.04 | 62 | 1016.0 | |
| 20260510173717 | 84 | 135 | 1.0 | 1.0 | 0.00 | 0.05 | 0.04 | 62 | 1016.1 |
| 20260510172717 | 84 | 180 | 1.0 | 2.0 | 0.00 | 0.05 | 0.04 | 62 | 1016.1 |
| 20260510171717 | 83 | 0.0 | 1.0 | 0.00 | 0.05 | 0.04 | 61 | 1016.2 | |
| 20260510170738 | 83 | 0 | 3.0 | 4.0 | 0.00 | 0.05 | 0.04 | 66 | 1016.1 |
| 20260510165739 | 83 | 45 | 1.0 | 1.0 | 0.00 | 0.05 | 0.04 | 63 | 1016.2 |
| 20260510164717 | 84 | 45 | 1.0 | 2.0 | 0.00 | 0.05 | 0.04 | 66 | 1016.3 |
| 20260510163718 | 83 | 45 | 1.0 | 2.0 | 0.00 | 0.05 | 0.04 | 66 | 1016.4 |
| 20260510162717 | 81 | 23 | 1.0 | 1.0 | 0.00 | 0.05 | 0.04 | 67 | 1016.6 |
| 20260510161718 | 82 | 23 | 1.0 | 2.0 | 0.00 | 0.05 | 0.04 | 67 | 1016.5 |
| 20260510160738 | 80 | 0.0 | 1.0 | 0.00 | 0.05 | 0.04 | 68 | 1016.5 | |
| 20260510155718 | 80 | 0 | 1.0 | 3.0 | 0.00 | 0.05 | 0.04 | 67 | 1016.6 |
| 20260510154717 | 80 | 68 | 1.0 | 2.0 | 0.00 | 0.05 | 0.04 | 69 | 1016.5 |
| 20260510153717 | 79 | 23 | 1.0 | 2.0 | 0.00 | 0.05 | 0.04 | 68 | 1016.6 |
| 20260510152717 | 79 | 23 | 1.0 | 2.0 | 0.00 | 0.05 | 0.04 | 72 | 1016.7 |
| 20260510151717 | 78 | 0.0 | 1.0 | 0.00 | 0.05 | 0.04 | 74 | 1016.6 | |
| 20260510150717 | 77 | 0.0 | 1.0 | 0.00 | 0.05 | 0.04 | 76 | 1016.5 | |
| 20260510145739 | 76 | 0.0 | 1.0 | 0.00 | 0.05 | 0.04 | 74 | 1016.5 | |
| 20260510144717 | 76 | 23 | 1.0 | 3.0 | 0.00 | 0.05 | 0.04 | 75 | 1016.5 |
| 20260510143717 | 75 | 0 | 1.0 | 1.0 | 0.00 | 0.05 | 0.04 | 75 | 1016.4 |
| 20260510142717 | 75 | 23 | 1.0 | 2.0 | 0.00 | 0.05 | 0.04 | 77 | 1016.1 |
| 20260510141717 | 75 | 23 | 1.0 | 1.0 | 0.00 | 0.05 | 0.04 | 79 | 1016.1 |
| 20260510140718 | 75 | 225 | 2.0 | 4.0 | 0.00 | 0.05 | 0.04 | 79 | 1016.2 |
| 20260510135741 | 74 | 0 | 3.0 | 5.0 | 0.00 | 0.05 | 0.04 | 81 | 1016.1 |
| 20260510134738 | 73 | 0.0 | 1.0 | 0.00 | 0.05 | 0.04 | 84 | 1016.3 | |
| 20260510133717 | 73 | 0.0 | 1.0 | 0.00 | 0.05 | 0.04 | 86 | 1016.3 | |
| 20260510132719 | 72 | 315 | 2.0 | 4.0 | 0.00 | 0.05 | 0.04 | 87 | 1016.3 |
| 20260510131717 | 71 | 0 | 1.0 | 2.0 | 0.00 | 0.05 | 0.04 | 89 | 1016.0 |
| 20260510130717 | 70 | 293 | 1.0 | 1.0 | 0.00 | 0.05 | 0.04 | 90 | 1016.2 |
| 20260510125717 | 70 | 0.0 | 2.0 | 0.00 | 0.05 | 0.04 | 92 | 1016.3 | |
| 20260510124737 | 69 | 0.0 | 1.0 | 0.00 | 0.05 | 0.04 | 95 | 1016.2 | |
| 20260510123718 | 68 | 0.0 | 0.0 | 0.00 | 0.05 | 0.04 | 96 | 1016.2 | |
| 20260510122717 | 68 | 0.0 | 0.0 | 0.00 | 0.05 | 0.04 | 96 | 1016.1 | |
| 20260510121717 | 67 | 0.0 | 0.0 | 0.00 | 0.05 | 0.04 | 96 | 1016.0 | |
| 20260510120717 | 67 | 0.0 | 0.0 | 0.00 | 0.05 | 0.04 | 96 | 1016.0 | |
| 20260510115719 | 67 | 0.0 | 0.0 | 0.00 | 0.05 | 0.04 | 96 | 1016.0 | |
| 20260510114717 | 67 | 0.0 | 0.0 | 0.00 | 0.05 | 0.04 | 96 | 1015.9 | |
| 20260510113739 | 67 | 0.0 | 0.0 | 0.00 | 0.05 | 0.04 | 96 | 1016.0 | |
| 20260510112717 | 66 | 0.0 | 0.0 | 0.00 | 0.05 | 0.04 | 96 | 1015.8 | |
| 20260510111718 | 66 | 0.0 | 0.0 | 0.00 | 0.05 | 0.04 | 96 | 1015.8 | |
| 20260510110719 | 66 | 0.0 | 0.0 | 0.00 | 0.05 | 0.04 | 96 | 1015.6 | |
| 20260510105718 | 66 | 0.0 | 0.0 | 0.00 | 0.05 | 0.04 | 96 | 1015.4 | |
| 20260510104719 | 66 | 0.0 | 0.0 | 0.00 | 0.05 | 0.04 | 96 | 1015.1 | |
| 20260510103717 | 66 | 0.0 | 0.0 | 0.00 | 0.05 | 0.04 | 96 | 1015.1 | |
| 20260510102758 | 66 | 0.0 | 0.0 | 0.00 | 0.05 | 0.04 | 96 | 1014.9 | |
| 20260510101718 | 67 | 0.0 | 0.0 | 0.00 | 0.05 | 0.04 | 96 | 1014.8 | |
| 20260510100717 | 67 | 0.0 | 0.0 | 0.00 | 0.05 | 0.04 | 96 | 1014.8 | |
| 20260510095718 | 67 | 0.0 | 0.0 | 0.00 | 0.05 | 0.04 | 96 | 1014.8 | |
| 20260510094717 | 67 | 0.0 | 0.0 | 0.00 | 0.05 | 0.04 | 96 | 1014.8 | |
| 20260510093718 | 67 | 0.0 | 0.0 | 0.00 | 0.05 | 0.04 | 96 | 1014.8 | |
| 20260510092717 | 67 | 0.0 | 0.0 | 0.00 | 0.05 | 0.04 | 96 | 1014.8 | |
| 20260510091718 | 67 | 0.0 | 0.0 | 0.00 | 0.05 | 0.04 | 96 | 1014.7 | |
| 20260510090758 | 67 | 0.0 | 0.0 | 0.00 | 0.05 | 0.04 | 96 | 1014.4 | |
| 20260510085718 | 67 | 0.0 | 0.0 | 0.00 | 0.05 | 0.04 | 96 | 1014.1 | |
| 20260510084737 | 67 | 0.0 | 0.0 | 0.00 | 0.05 | 0.04 | 96 | 1014.1 | |
| 20260510083717 | 67 | 0.0 | 0.0 | 0.01 | 0.05 | 0.04 | 95 | 1013.9 | |
| 20260510082719 | 67 | 0.0 | 0.0 | 0.01 | 0.05 | 0.04 | 95 | 1013.9 | |
| 20260510081718 | 67 | 0.0 | 0.0 | 0.01 | 0.05 | 0.04 | 95 | 1013.8 | |
| 20260510080718 | 67 | 0.0 | 0.0 | 0.01 | 0.05 | 0.04 | 95 | 1013.9 | |
| 20260510075718 | 67 | 0.0 | 0.0 | 0.01 | 0.05 | 0.04 | 95 | 1013.9 | |
| 20260510074718 | 67 | 0.0 | 0.0 | 0.01 | 0.05 | 0.04 | 95 | 1013.8 | |
| 20260510073718 | 67 | 0.0 | 0.0 | 0.01 | 0.04 | 0.03 | 95 | 1013.7 | |
| 20260510072717 | 67 | 0.0 | 0.0 | 0.02 | 0.04 | 0.03 | 95 | 1013.6 | |
| 20260510071737 | 67 | 0.0 | 0.0 | 0.03 | 0.04 | 0.03 | 95 | 1013.6 | |
| 20260510070719 | 67 | 0.0 | 0.0 | 0.03 | 0.04 | 0.03 | 95 | 1013.8 | |
| 20260510065717 | 67 | 0.0 | 0.0 | 0.03 | 0.04 | 0.03 | 95 | 1013.6 | |
| 20260510064737 | 67 | 0.0 | 0.0 | 0.03 | 0.04 | 0.03 | 95 | 1012.9 | |
| 20260510063717 | 67 | 0.0 | 0.0 | 0.02 | 0.03 | 0.02 | 95 | 1013.5 | |
| 20260510062738 | 67 | 0.0 | 0.0 | 0.01 | 0.02 | 0.01 | 95 | 1013.7 | |
| 20260510061718 | 67 | 0.0 | 0.0 | 0.00 | 0.01 | 0.00 | 95 | 1013.8 | |
| 20260510060717 | 67 | 0.0 | 0.0 | 0.00 | 0.01 | 0.00 | 95 | 1013.8 | |
| 20260510055717 | 67 | 0.0 | 0.0 | 0.00 | 0.01 | 0.00 | 95 | 1013.9 | |
| 20260510054737 | 67 | 0.0 | 0.0 | 0.00 | 0.01 | 0.00 | 95 | 1014.1 | |
| 20260510053717 | 67 | 0.0 | 0.0 | 0.00 | 0.01 | 0.00 | 95 | 1014.2 | |
| 20260510052717 | 67 | 0.0 | 0.0 | 0.00 | 0.01 | 0.00 | 95 | 1014.3 | |
| 20260510051718 | 67 | 0.0 | 0.0 | 0.00 | 0.01 | 0.00 | 95 | 1014.3 | |
| 20260510050718 | 67 | 0.0 | 0.0 | 0.00 | 0.01 | 0.00 | 95 | 1014.5 | |
| 20260510045717 | 67 | 0.0 | 0.0 | 0.00 | 0.01 | 0.00 | 94 | 1014.6 | |
| 20260510044718 | 67 | 0.0 | 0.0 | 0.00 | 0.01 | 0.00 | 94 | 1014.7 | |
| 20260510043717 | 67 | 0.0 | 0.0 | 0.00 | 0.01 | 0.00 | 94 | 1014.4 | |
| 20260510042717 | 67 | 0.0 | 0.0 | 0.00 | 0.01 | 0.00 | 94 | 1014.3 | |
| 20260510041718 | 67 | 0.0 | 0.0 | 0.00 | 0.01 | 0.00 | 94 | 1014.2 | |
| 20260510040717 | 67 | 0.0 | 0.0 | 0.00 | 0.01 | 0.00 | 94 | 1014.1 | |
| 20260510035718 | 67 | 0.0 | 0.0 | 0.00 | 0.01 | 0.01 | 94 | 1014.1 | |
| 20260510001337 | 70 | 0.0 | 0.0 | 0.00 | 0.03 | 0.01 | 89 | 1012.7 | |
| 20260510000616 | 70 | 0.0 | 0.0 | 0.00 | 0.03 | 0.01 | 89 | 1012.7 | |
| 20260509235617 | 70 | 0.0 | 0.0 | 0.00 | 0.03 | 0.01 | 88 | 1012.2 | |
| 20260509234616 | 71 | 0.0 | 0.0 | 0.00 | 0.03 | 0.01 | 88 | 1012.4 | |
| 20260509233616 | 71 | 0.0 | 0.0 | 0.00 | 0.03 | 0.01 | 87 | 1012.3 | |
| 20260509232617 | 71 | 0.0 | 0.0 | 0.00 | 0.03 | 0.01 | 86 | 1012.2 | |
| 20260509231616 | 71 | 0.0 | 0.0 | 0.00 | 0.03 | 0.01 | 86 | 1012.1 | |
| 20260509230616 | 72 | 0.0 | 0.0 | 0.00 | 0.03 | 0.01 | 85 | 1012.4 | |
| 20260509225617 | 72 | 0.0 | 0.0 | 0.00 | 0.03 | 0.01 | 84 | 1011.9 | |
| 20260509224616 | 72 | 0.0 | 0.0 | 0.00 | 0.03 | 0.01 | 85 | 1012.0 | |
| 20260509223618 | 72 | 45 | 1.0 | 1.0 | 0.00 | 0.03 | 0.01 | 84 | 1011.9 |
| 20260509222616 | 73 | 0.0 | 0.0 | 0.00 | 0.03 | 0.01 | 84 | 1011.7 | |
| 20260509221616 | 73 | 0.0 | 0.0 | 0.00 | 0.03 | 0.01 | 84 | 1012.0 | |
| 20260509220616 | 73 | 0.0 | 1.0 | 0.00 | 0.03 | 0.01 | 84 | 1011.9 | |
| 20260509215616 | 72 | 0.0 | 1.0 | 0.00 | 0.03 | 0.01 | 85 | 1011.9 | |
| 20260509214617 | 73 | 0.0 | 1.0 | 0.00 | 0.03 | 0.01 | 84 | 1011.8 | |
| 20260509213617 | 73 | 0.0 | 1.0 | 0.00 | 0.03 | 0.01 | 83 | 1011.9 | |
| 20260509212617 | 73 | 0.0 | 0.0 | 0.00 | 0.03 | 0.01 | 83 | 1011.9 | |
| 20260509211618 | 73 | 0.0 | 0.0 | 0.00 | 0.03 | 0.01 | 83 | 1011.9 | |
| 20260509210617 | 73 | 0.0 | 0.0 | 0.00 | 0.03 | 0.01 | 83 | 1012.5 | |
| 20260509205618 | 73 | 0.0 | 0.0 | 0.00 | 0.03 | 0.01 | 84 | 1012.6 | |
| 20260509204618 | 73 | 0.0 | 0.0 | 0.00 | 0.03 | 0.01 | 81 | 1012.5 | |
| 20260509203616 | 73 | 0.0 | 0.0 | 0.00 | 0.03 | 0.01 | 80 | 1012.2 | |
| 20260509202616 | 74 | 0.0 | 0.0 | 0.00 | 0.03 | 0.01 | 81 | 1012.1 | |
| 20260509201617 | 74 | 0.0 | 0.0 | 0.00 | 0.03 | 0.01 | 81 | 1012.0 | |
| 20260509200616 | 73 | 0.0 | 0.0 | 0.00 | 0.03 | 0.01 | 80 | 1012.2 | |
| 20260509195616 | 73 | 0.0 | 0.0 | 0.00 | 0.03 | 0.01 | 80 | 1012.3 | |
| 20260509194616 | 73 | 0.0 | 0.0 | 0.00 | 0.03 | 0.01 | 81 | 1012.4 | |
| 20260509193616 | 73 | 225 | 1.0 | 2.0 | 0.00 | 0.03 | 0.01 | 81 | 1012.6 |
| 20260509192616 | 72 | 0.0 | 1.0 | 0.00 | 0.03 | 0.01 | 83 | 1012.6 |